Regional Weather Roundup
Issued by NWS Goodland, KS

Home | Current Version | Previous Version | Graphics & Text | Print | Product List | Glossary On
Versions: 1 2 3 4 5 6 7 8 9 10 11 12 13 14 15 16 17 18 19 20 21 22 23 24 25 26 27 28 29 30 31 32 33 34 35 36 37 38 39 40 41 42 43 44 45 46 47 48 49 50
000
ASUS43 KGLD 051208
RWRGLD

GOODLAND FORECAST AREA HOURLY WEATHER ROUNDUP
NATIONAL WEATHER SERVICE GOODLAND KS
600 AM MDT SUN JUL 05 2015

...OFFICIAL OBSERVATIONS...

CITY           SKY/WX    TMP DP  RH WIND       PRES   REMARKS
GOODLAND KS    CLEAR     67  62  84 S14       29.89F
HILL CITY KS   MOCLDY    74  66  76 W8        29.85F
IMPERIAL NEB   CLEAR     70  63  78 S10       29.86S
MCCOOK NEB     CLEAR     77  61  57 SW13      29.83F
AKRON CO       PTCLDY    66  51  58 SW12      29.94S
BURLINGTON CO  PTCLDY    61  57  87 SE6       29.93R
LIMON CO       PTCLDY    54  52  93 CALM      30.01S
$$

...UNOFFICIAL OBSERVATIONS...

CITY           SKY/WX    TMP DP  RH WIND       PRES   REMARKS
COLBY KS       CLEAR     75  63  64 S16G24    29.89F
GOVE KS          N/A     74  32  21 MISG        N/A
NORTON KS      CLEAR     73  64  73 SE9       29.82
SHARON SPRINGS   N/A     67  63  87 SE9         N/A
KIT CARSON CO    N/A     59  54  83 MISG        N/A
$$


USA.gov is the U.S. government's official web portal to all federal, state and local government web resources and services.